Location: Altleiningen
(49.5078°N, 8.0741°E)
Time: 10:16:10
(UTC+00:00)

CZ-2C R/B - Pass Details

Date: 03 March 2021
Orbit: 784 x 871 km, 98.2° (Epoch: 12 April)

Event Time Altitude Azimuth Distance (km) Brightness Sun altitude
Rises 17:59:43 0° 19° (NNE) 3,436 5.7 -8.2°
Reaches altitude 10° 18:02:18 10° 27° (NNE) 2,484 4.9 -8.7°
Maximum altitude 18:07:26 39° 96° (E) 1,238 3.1 -9.5°
Drops below altitude 10° 18:12:25 10° 165° (SSE) 2,413 4.9 -10.3°
Sets 18:14:53 0° 173° (S) 3,326 5.7 -10.7°
